Regional Weather Roundup
Issued by NWS

Home | Current Version | Previous Version | Text Only | Print | Product List | Glossary On
Versions: 1 2 3 4 5 6 7 8 9 10 11 12 13 14 15 16 17 18 19 20 21 22 23 24 25 26 27 28 29 30 31 32 33 34 35 36 37 38 39 40 41 42 43 44 45 46 47 48 49 50
000
ASUS43 KLMK 261210
RWRKY
KENTUCKY REGIONAL WEATHER ROUNDUP
NATIONAL WEATHER SERVICE LOUISVILLE KY
800 AM EDT THU MAR 26 2015

NOTE "FAIR" INDICATES FEW OR NO CLOUDS BELOW 12,000 FEET
WITH NO SIGNIFICANT WEATHER AND/OR OBSTRUCTIONS TO VISIBILITY.

KYZ001>023-026-027-061>063-070>075-261300-
WESTERN AND SOUTH CENTRAL KENTUCKY

CITY           SKY/WX    TMP DP  RH WIND       PRES   REMARKS
PADUCAH        LGT RAIN  49  46  90 N7        29.92R
HENDERSON      CLOUDY    46  43  87 N8        29.90R
OWENSBORO      LGT RAIN  49  47  93 N10       29.90R
HOPKINSVILLE   CLOUDY    52  52 100 NW5       29.88R FOG
BOWLING GREEN  CLOUDY    59  56  89 SW5       29.85S
GLASGOW        CLOUDY    58  55  92 SW7       29.85S
$$

KYZ024-025-028>034-038-045-046-053-261300-
NORTH CENTRAL KENTUCKY

CITY           SKY/WX    TMP DP  RH WIND       PRES   REMARKS
LOUISVILLE/SDF RAIN      48  46  93 N10       29.85F FOG
LOUISVILLE/LOU LGT RAIN  48  46  93 N7        29.86S
FORT KNOX      DRIZZLE   47  45  93 N8        29.83S FOG
$$

KYZ035>037-039>044-047>052-055>060-089>105-261300-
NORTHEAST KENTUCKY

CITY           SKY/WX    TMP DP  RH WIND       PRES   REMARKS
LEXINGTON      CLOUDY    54  53  97 CALM      29.81F FOG
COVINGTON      RAIN      46  45  96 N10       29.85R FOG
FRANKFORT      RAIN      50  48  93 N5        29.82R FOG
$$

KYZ054-064>069-076>088-106>120-261300-
SOUTHEAST KENTUCKY

CITY           SKY/WX    TMP DP  RH WIND       PRES   REMARKS
JACKSON        MOCLDY    61  50  67 S6        29.84F
LONDON         CLOUDY    62  50  64 S6        29.86S
SOMERSET       CLOUDY    61  54  77 SW7       29.87R
MIDDLESBORO    MOCLDY    62  55  79 S15       29.90F
MONTICELLO     CLOUDY    63  57  82 SW14G21   29.89R HAZE
$$



USA.gov is the U.S. government's official web portal to all federal, state and local government web resources and services.